This demonstration page uses our WeatherBlox Daily Observations layout. Learn more.

Left ArrowRight Arrow

38.89511, -77.03637

Hourly Observations for November 8, 2015

Temp ( °F °C ) Dew Point ( °F °C ) Humidity (%) Winds ( mph kmh ) Pressure ( in mb ) Visibility ( mi km ) Precip ( " mm )
12:52 am 00:52 Mostly Cloudy 53 11.7 36 2.2 52 52 NW 9 15 30.28 1026 10 16 N/A
1:52 am 01:52 Mostly Cloudy 53 11.7 33 0.6 47 47 NNW 13 20 30.30 1026 10 16 N/A
2:52 am 02:52 Partly Cloudy 51 10.6 32 undefined 48 48 NNW 12 19 30.32 1027 10 16 N/A
3:52 am 03:52 Mostly Cloudy 50 10 32 undefined 50 50 NNW 8 13 30.33 1027 10 16 N/A
4:52 am 04:52 Partly Cloudy 50 10 32 undefined 50 50 NW 10 17 30.34 1027 10 16 N/A
5:52 am 05:52 Partly Cloudy 47 8.3 33 0.6 59 59 NNW 9 15 30.37 1028 10 16 N/A
6:52 am 06:52 Partly Cloudy 47 8.3 33 0.6 59 59 NNW 9 15 30.40 1029 10 16 N/A
7:52 am 07:52 Partly Cloudy 48 8.9 34 1.1 58 58 NNW 13 20 30.42 1030 10 16 N/A
8:52 am 08:52 Mostly Cloudy 52 11.1 35 1.7 53 53 N 9 15 30.45 1031 10 16 N/A
9:52 am 09:52 Mostly Cloudy 54 12.2 33 0.6 45 45 N 12 19 30.45 1031 10 16 N/A
10:52 am 10:52 Mostly Cloudy 56 13.3 31 -0.6 39 39 NE 9 15 30.46 1032 10 16 N/A
11:52 am 11:52 Mostly Cloudy 56 13.3 30 -1.1 37 37 NNE 9 15 30.45 1031 10 16 N/A
12:52 pm 12:52 Partly Cloudy 57 13.9 30 -1.1 36 36 ENE 5 7 30.42 1030 10 16 N/A
1:52 pm 13:52 Partly Cloudy 58 14.4 28 -2.2 32 32 N N/A 30.41 1030 10 16 N/A
2:52 pm 14:52 Partly Cloudy 57 13.9 29 -1.7 34 34 SE 5 7 30.41 1030 10 16 N/A
3:52 pm 15:52 Mostly Sunny 57 13.9 30 -1.1 36 36 S 3 6 30.41 1030 10 16 N/A
4:52 pm 16:52 Partly Cloudy 54 12.2 29 -1.7 38 38 SSW 6 9 30.41 1030 10 16 N/A
5:52 pm 17:52 Mostly Clear 52 11.1 32 undefined 47 47 S 6 9 30.42 1030 10 16 N/A
6:52 pm 18:52 Mostly Clear 53 11.7 30 -1.1 41 41 SW 3 6 30.42 1030 10 16 N/A
7:52 pm 19:52 Mostly Clear 49 9.4 35 1.7 59 59 S 6 9 30.43 1031 10 16 N/A
8:52 pm 20:52 Mostly Clear 48 8.9 37 2.8 66 66 SSE 6 9 30.44 1031 10 16 N/A
9:52 pm 21:52 Mostly Clear 46 7.8 37 2.8 71 71 SW 5 7 30.45 1031 10 16 N/A
10:52 pm 22:52 Clear 45 7.2 35 1.7 68 68 SW 6 9 30.45 1031 10 16 N/A
11:52 pm 23:52 Clear 44 6.7 36 2.2 73 73 SW 6 9 30.45 1031 10 16 N/A

Powered by AerisWeather